sat.trackr.live / text

‹ back to catalog

STARLINK-33638

NORAD 63436 · 2025-069D

PAYLOAD ACTIVE UNKNOWN

§ Identity

Operator
Country
US
Launch date
2025-04-04
Launch site
AFWTR
Launch vehicle
Mass (kg)
RCS (m²)

Purposes: comms

External: N2YO · Heavens-Above · Gunter

§ Orbital elements

Epoch: 2026-09-20T09:55:13.316448Z

Period
93.85 min
Inclination
53.1582°
Eccentricity
0.0000700
Mean motion
15.34406226 rev/d
Perigee alt
462.2 km
Apogee alt
463.2 km
Semi-major
6,840.8 km
B*
4.3303e-4
RAAN
308.3455°
Arg perigee
73.1223°
Mean anomaly
286.9857°
Rev number
8,335

§ Raw data

STARLINK-336381 63436U 25069D   26263.41334857  .00014285  00000+0  43303-3 0  99932 63436  53.1582 308.3455 0000700  73.1223 286.9857 15.34406226 83358

JSON: /api/v1/satellites/63436 · /tle

For live sub-satellite position, see the globe view (requires WebGL).

§ Visibility from observer

Set your observer location to see the next 7 days of passes ≥ 10°. The values pass through the URL so the page stays shareable.

No JS? Fill the form by hand. The geolocation button needs JavaScript.